{"data":{"norad_id":67285,"intl_designator":"2025-313AP","name":"NASBSAT-2","alt_names":[],"object_type":"PAYLOAD","status":"ACTIVE","operator":null,"country":"BELA","launch_date":"2025-12-28","launch_site_code":"VOSTO","launch_vehicle":null,"mission":null,"orbit_class":"UNKNOWN","rcs_meters":null,"size_class":null,"mass_kg":null,"dimensions":null,"purposes":[],"wikipedia_slug":null,"has_3d_model":false,"image_url":null,"decayed_at":null,"tle_current":{"epoch":"2026-09-20T22:47:46.073184Z","epoch_age_seconds":64197,"freshness":"FRESH","line1":"1 67285U 25313AP  26263.94983881  .00003885  00000+0  15965-3 0  9993","line2":"2 67285  97.3842 337.4065 0010599  31.8456 328.3421 15.24727096 40552","mean_motion":15.24727096,"eccentricity":0.0010599,"inclination_deg":97.3842,"raan_deg":337.4065,"arg_perigee_deg":31.8456,"mean_anomaly_deg":328.3421,"bstar":0.00015965,"rev_number":4055,"period_min":94.44313043152,"perigee_km":484.32379461451,"apogee_km":498.8862737786,"semimajor_km":6869.7420341966,"source":"CELESTRAK","updated_at":"2026-09-21T09:00:16.548209Z"}}}